Location: Rounton
(54.4000°N, 1.3500°W)
Time: 13:32:27
(UTC+00:00)

Transit 2A - Pass Details

Date: 09 December 2021
Orbit: 591 x 967 km, 66.7° (Epoch: 17 January)

Event Time Altitude Azimuth Distance (km) Brightness Sun altitude
Rises 04:25:12 0° 305° (NW) 3,605 - -31.8°
Reaches altitude 10° 04:28:04 10° 315° (NW) 2,689 - -31.3°
Exits shadow 04:32:35 29° 359° (N) 1,692 7.7 -30.7°
Maximum altitude 04:33:37 31° 16° (NNE) 1,644 7.8 -30.5°
Drops below altitude 10° 04:39:12 10° 77° (ENE) 2,699 9.7 -29.7°
Sets 04:42:05 0° 88° (E) 3,619 10.7 -29.3°
